When you browse on this site, cookies collect data to enhance your experience and personalize the content and advertising you see.
Visit our Privacy Policy to learn more. By continuing to use the site, you agree to this use of cookies and data.
  • In Latvia
  • List of Countries
  • For 7 days
  • Water Temperature
  • Satellite Maps
  • Weather Map
  • Weather Widgets
  • user-avatar
    Login

    Hourly Weather Ghent

    Today, 20 July, Saturday

    Time Temperature Precipitation Wind Pressure Humidity
    00:00 +19°C° 0 mm 3 mps 757 mmHg 84%
    01:00 +19°C° 0 mm 3 mps 757 mmHg 85%
    02:00 +19°C° 0 mm 3 mps 756 mmHg 86%
    03:00 +18°C° 0 mm 4 mps 756 mmHg 88%
    04:00 +19°C° 0.7 mm 4 mps 755 mmHg 87%
    05:00 +20°C° 0.7 mm 4 mps 755 mmHg 87%
    06:00 +20°C° 0 mm 3 mps 756 mmHg 83%
    07:00 +20°C° 1.1 mm 4 mps 756 mmHg 83%
    08:00 +21°C° 1.1 mm 4 mps 756 mmHg 82%
    09:00 +21°C° 1.1 mm 5 mps 756 mmHg 81%
    10:00 +22°C° 0.3 mm 5 mps 756 mmHg 77%
    11:00 +23°C° 0.3 mm 6 mps 756 mmHg 73%
    12:00 +24°C° 0 mm 6 mps 756 mmHg 68%
    13:00 +26°C° 0.9 mm 7 mps 756 mmHg 63%
    14:00 +26°C° 0.9 mm 8 mps 757 mmHg 59%
    15:00 +27°C° 0.9 mm 9 mps 757 mmHg 55%
    16:00 +26°C° 0.1 mm 8 mps 757 mmHg 57%
    17:00 +24°C° 0.1 mm 7 mps 757 mmHg 58%
    18:00 +22°C° 0.1 mm 7 mps 758 mmHg 60%
    19:00 +21°C° 0 mm 6 mps 758 mmHg 64%
    20:00 +20°C° 0 mm 6 mps 759 mmHg 68%
    21:00 +17°C° 0 mm 5 mps 759 mmHg 73%
    22:00 +17°C° 0 mm 4 mps 760 mmHg 78%
    23:00 +17°C° 0 mm 4 mps 760 mmHg 83%

    Tomorrow, 21 July, Sunday

    Time Temperature Precipitation Wind Pressure Humidity
    00:00 +15°C° 0 mm 4 mps 761 mmHg 88%
    01:00 +14°C° 0 mm 3 mps 761 mmHg 90%
    02:00 +14°C° 0 mm 3 mps 762 mmHg 92%
    03:00 +14°C° 0 mm 3 mps 762 mmHg 94%
    04:00 +16°C° 0 mm 3 mps 762 mmHg 91%
    05:00 +16°C° 0 mm 3 mps 763 mmHg 88%
    06:00 +17°C° 0 mm 3 mps 763 mmHg 84%
    07:00 +19°C° 0 mm 3 mps 764 mmHg 77%
    08:00 +20°C° 0 mm 3 mps 764 mmHg 70%
    09:00 +22°C° 0 mm 4 mps 765 mmHg 63%
    10:00 +23°C° 0 mm 4 mps 765 mmHg 58%
    11:00 +23°C° 0 mm 4 mps 765 mmHg 53%
    12:00 +25°C° 0 mm 4 mps 765 mmHg 48%
    13:00 +25°C° 0 mm 4 mps 765 mmHg 48%
    14:00 +25°C° 0 mm 4 mps 765 mmHg 48%
    15:00 +25°C° 0 mm 4 mps 766 mmHg 47%
    16:00 +25°C° 0 mm 4 mps 766 mmHg 50%
    17:00 +24°C° 0 mm 3 mps 765 mmHg 53%
    18:00 +24°C° 0 mm 3 mps 765 mmHg 56%
    19:00 +21°C° 0 mm 2 mps 766 mmHg 62%
    20:00 +20°C° 0 mm 1 mps 766 mmHg 67%
    21:00 +19°C° 0 mm 1 mps 766 mmHg 72%
    22:00 +18°C° 0 mm 1 mps 766 mmHg 73%
    23:00 +18°C° 0 mm 1 mps 766 mmHg 73%

    Day after tomorrow, 22 July, Monday

    Time Temperature Precipitation Wind Pressure Humidity
    00:00 +16°C° 0 mm 2 mps 766 mmHg 73%
    01:00 +16°C° 0 mm 2 mps 766 mmHg 74%
    02:00 +16°C° 0 mm 2 mps 766 mmHg 75%
    03:00 +16°C° 0 mm 2 mps 766 mmHg 75%
    04:00 +16°C° 0 mm 2 mps 766 mmHg 74%
    05:00 +17°C° 0 mm 3 mps 766 mmHg 73%
    06:00 +18°C° 0 mm 3 mps 766 mmHg 72%
    07:00 +20°C° 0 mm 3 mps 766 mmHg 65%
    08:00 +22°C° 0 mm 3 mps 767 mmHg 59%
    09:00 +25°C° 0 mm 3 mps 767 mmHg 53%
    10:00 +26°C° 0 mm 3 mps 767 mmHg 49%
    11:00 +27°C° 0 mm 3 mps 766 mmHg 45%
    12:00 +29°C° 0 mm 3 mps 766 mmHg 41%
    13:00 +29°C° 0 mm 3 mps 766 mmHg 40%
    14:00 +30°C° 0 mm 3 mps 766 mmHg 40%
    15:00 +30°C° 0 mm 3 mps 766 mmHg 40%
    16:00 +29°C° 0 mm 3 mps 766 mmHg 46%
    17:00 +28°C° 0 mm 3 mps 765 mmHg 52%
    18:00 +26°C° 0 mm 3 mps 765 mmHg 58%
    19:00 +24°C° 0 mm 2 mps 766 mmHg 64%
    20:00 +21°C° 0 mm 2 mps 766 mmHg 70%
    21:00 +21°C° 0 mm 1 mps 766 mmHg 76%
    22:00 +20°C° 0 mm 1 mps 766 mmHg 76%
    23:00 +20°C° 0 mm 1 mps 766 mmHg 75%

    23 July, Tuesday

    Time Temperature Precipitation Wind Pressure Humidity
    00:00 +20°C° 0 mm 1 mps 765 mmHg 75%
    01:00 +20°C° 0 mm 1 mps 765 mmHg 76%
    02:00 +19°C° 0 mm 1 mps 765 mmHg 77%
    03:00 +18°C° 0 mm 2 mps 765 mmHg 78%
    04:00 +20°C° 0 mm 1 mps 765 mmHg 75%
    05:00 +21°C° 0 mm 1 mps 765 mmHg 73%
    06:00 +22°C° 0 mm 1 mps 764 mmHg 71%
    07:00 +24°C° 0 mm 1 mps 764 mmHg 63%
    08:00 +26°C° 0 mm 2 mps 764 mmHg 56%
    09:00 +28°C° 0 mm 2 mps 764 mmHg 49%
    10:00 +30°C° 0 mm 3 mps 764 mmHg 45%
    11:00 +31°C° 0 mm 3 mps 763 mmHg 41%
    12:00 +33°C° 0 mm 3 mps 763 mmHg 37%
    13:00 +34°C° 0 mm 3 mps 763 mmHg 35%
    14:00 +34°C° 0 mm 3 mps 762 mmHg 34%
    15:00 +35°C° 0 mm 3 mps 762 mmHg 32%
    16:00 +34°C° 0 mm 3 mps 762 mmHg 36%
    17:00 +32°C° 0 mm 2 mps 761 mmHg 40%
    18:00 +31°C° 0 mm 2 mps 761 mmHg 44%
    19:00 +29°C° 0 mm 2 mps 761 mmHg 48%
    20:00 +28°C° 0 mm 2 mps 761 mmHg 52%
    21:00 +26°C° 0 mm 2 mps 761 mmHg 56%
    22:00 +25°C° 0 mm 2 mps 761 mmHg 58%
    23:00 +24°C° 0 mm 2 mps 761 mmHg 60%

    24 July, Wednesday

    Time Temperature Precipitation Wind Pressure Humidity
    00:00 +24°C° 0 mm 2 mps 760 mmHg 62%
    01:00 +24°C° 0 mm 3 mps 760 mmHg 65%
    02:00 +22°C° 0 mm 3 mps 760 mmHg 67%
    03:00 +22°C° 0 mm 3 mps 759 mmHg 70%
    04:00 +24°C° 0 mm 3 mps 759 mmHg 68%
    05:00 +25°C° 0 mm 3 mps 759 mmHg 67%
    06:00 +26°C° 0 mm 3 mps 759 mmHg 66%
    07:00 +28°C° 0 mm 3 mps 759 mmHg 60%
    08:00 +30°C° 0 mm 4 mps 759 mmHg 53%
    09:00 +33°C° 0 mm 4 mps 760 mmHg 47%
    10:00 +35°C° 0 mm 4 mps 759 mmHg 44%
    11:00 +36°C° 0 mm 4 mps 759 mmHg 40%
    12:00 +38°C° 0 mm 4 mps 759 mmHg 37%
    13:00 +38°C° 0 mm 4 mps 759 mmHg 36%
    14:00 +38°C° 0 mm 4 mps 759 mmHg 36%
    15:00 +38°C° 0 mm 4 mps 759 mmHg 35%
    16:00 +37°C° 0 mm 3 mps 759 mmHg 42%
    17:00 +35°C° 0 mm 3 mps 758 mmHg 49%
    18:00 +33°C° 0 mm 3 mps 758 mmHg 55%
    19:00 +30°C° 0 mm 2 mps 759 mmHg 60%
    20:00 +28°C° 0 mm 2 mps 759 mmHg 64%
    21:00 +26°C° 0 mm 2 mps 759 mmHg 69%
    22:00 +26°C° 0 mm 2 mps 759 mmHg 69%
    23:00 +26°C° 0 mm 2 mps 759 mmHg 70%

    25 July, Thursday

    Time Temperature Precipitation Wind Pressure Humidity
    00:00 +26°C° 0 mm 2 mps 758 mmHg 70%
    01:00 +26°C° 0 mm 2 mps 758 mmHg 67%
    02:00 +26°C° 0 mm 3 mps 758 mmHg 64%
    03:00 +26°C° 0 mm 3 mps 758 mmHg 61%
    04:00 +27°C° 0 mm 3 mps 758 mmHg 59%
    05:00 +28°C° 0 mm 3 mps 758 mmHg 56%
    06:00 +29°C° 0 mm 4 mps 758 mmHg 54%
    07:00 +32°C° 0 mm 4 mps 757 mmHg 49%
    08:00 +34°C° 0 mm 4 mps 757 mmHg 44%
    09:00 +36°C° 0 mm 5 mps 757 mmHg 40%
    10:00 +39°C° 0 mm 5 mps 757 mmHg 36%
    11:00 +40°C° 0 mm 5 mps 757 mmHg 32%
    12:00 +42°C° 0 mm 5 mps 756 mmHg 28%
    13:00 +42°C° 0 mm 5 mps 756 mmHg 28%
    14:00 +42°C° 0 mm 5 mps 756 mmHg 28%
    15:00 +41°C° 0 mm 5 mps 756 mmHg 28%
    16:00 +36°C° 0.5 mm 5 mps 756 mmHg 41%
    17:00 +33°C° 0.5 mm 5 mps 756 mmHg 53%
    18:00 +28°C° 0.5 mm 5 mps 756 mmHg 66%
    19:00 +26°C° 1.1 mm 5 mps 757 mmHg 73%
    20:00 +23°C° 1.1 mm 4 mps 757 mmHg 80%
    21:00 +21°C° 1.1 mm 4 mps 758 mmHg 88%
    22:00 +21°C° 0.9 mm 4 mps 758 mmHg 88%
    23:00 +21°C° 0.9 mm 4 mps 758 mmHg 89%
    Show more